Weather History for Birchwood, AK

Change the Weather History Date:

Wednesday, December 26, 2012

  Actual Average Record
Temperature  
Mean Temperature 18 °F -  
Max Temperature 24 °F 18 °F 53 °F (1999)
Min Temperature 12 °F 5 °F -9 °F (1998)
Degree Days  
Heating Degree Days 47    
Moisture  
Dew Point 18 °F    
Average Humidity 94    
Maximum Humidity 100    
Minimum Humidity 80    
Precipitation  
Precipitation 0.00 in - - ()
Sea Level Pressure  
Sea Level Pressure 29.49 in    
Wind  
Wind Speed 2 mph (SSE)    
Max Wind Speed 6 mph    
Max Gust Speed -    
Visibility 9 miles    
Events      
Averages and records for this station are not official NWS values.
T = Trace of Precipitation, MM = Missing Value Source: NWS Daily Summary

Daily Weather History Graph

Daily Weather History Graph

Search for Another Location

Airport:

Trip Planner

Search our weather history database for the weather conditions in past years. The results will help you decide how hot, cold, wet, or windy it might be!

Date:

Astronomy

Dec. 26, 2012 Rise Set
Actual Time 10:16 AM AKST 3:41 PM AKST
Civil Twilight 9:13 AM AKST 4:44 PM AKST
Nautical Twilight 8:13 AM AKST 5:45 PM AKST
Astronomical Twilight 7:19 AM AKST 6:39 PM AKST
Moon 2:54 PM AKST (12/26) 8:36 AM AKST (12/26)
Length of Visible Light 7h 31m
Length of Day
5h 25m
Waxing Gibbous, 98% of the Moon is Illuminated
Dec 26
Waxing Gibbous
Dec 28
Full
Jan 4
Last Quarter
Jan 11
New
Jan 18
First Quarter

Hourly Weather History & Observations

Time (AKST) Temp. Windchill Dew Point Humidity Pressure Visibility Wind Dir Wind Speed Gust Speed Precip Events Conditions
12:16 AM 23.0 °F - 17.6 °F 80% 29.65 in 10.0 mi Calm Calm - N/A   Overcast
12:36 AM 23.0 °F 18.4 °F 17.6 °F 80% 29.64 in 10.0 mi ENE 3.5 mph - N/A   Overcast
12:56 AM 21.2 °F - 17.6 °F 86% 29.64 in 10.0 mi Calm Calm - N/A   Overcast
1:16 AM 21.2 °F 16.4 °F 17.6 °F 86% 29.63 in 10.0 mi NE 3.5 mph - N/A   Overcast
1:36 AM 21.2 °F 16.4 °F 15.8 °F 80% 29.63 in 10.0 mi NNE 3.5 mph - N/A   Overcast
1:56 AM 21.2 °F 16.4 °F 17.6 °F 86% 29.63 in 10.0 mi NE 3.5 mph - N/A   Overcast
2:16 AM 21.2 °F - 17.6 °F 86% 29.63 in 10.0 mi Calm Calm - N/A   Overcast
2:36 AM 21.2 °F - 17.6 °F 86% 29.63 in 10.0 mi Calm Calm - N/A   Overcast
2:56 AM 21.2 °F - 17.6 °F 86% 29.62 in 10.0 mi Calm Calm - N/A   Overcast
3:16 AM 21.2 °F - 19.4 °F 93% 29.62 in 7.0 mi Calm Calm - N/A   Overcast
3:36 AM 21.2 °F - 19.4 °F 93% 29.62 in 1.2 mi Calm Calm - N/A   Overcast
3:56 AM 21.2 °F - 19.4 °F 93% 29.61 in 0.5 mi Calm Calm - N/A   Overcast
4:16 AM 21.2 °F - 19.4 °F 93% 29.61 in 0.5 mi Calm Calm - N/A   Overcast
4:36 AM 21.2 °F - 19.4 °F 93% 29.60 in 0.5 mi Calm Calm - N/A   Overcast
4:56 AM 21.2 °F - 19.4 °F 93% 29.60 in 0.2 mi Calm Calm - N/A   Overcast
5:16 AM 21.2 °F - 19.4 °F 93% 29.59 in 0.2 mi Calm Calm - N/A   Overcast
5:36 AM 19.4 °F - 19.4 °F 100% 29.58 in 0.5 mi Calm Calm - N/A   Overcast
5:56 AM 19.4 °F - 17.6 °F 93% 29.58 in 0.5 mi Calm Calm - N/A   Overcast
6:16 AM 17.6 °F - 17.6 °F 100% 29.57 in 8.0 mi Calm Calm - N/A   Partly Cloudy
6:36 AM 17.6 °F 12.3 °F 17.6 °F 100% 29.57 in 10.0 mi South 3.5 mph - N/A   Scattered Clouds
6:56 AM 15.8 °F - 15.8 °F 100% 29.56 in 10.0 mi Calm Calm - N/A   Scattered Clouds
7:16 AM 15.8 °F - 14.0 °F 93% 29.56 in 10.0 mi Calm Calm - N/A   Partly Cloudy
7:36 AM 12.2 °F 6.1 °F 12.2 °F 100% 29.55 in 10.0 mi SE 3.5 mph - N/A   Clear
7:56 AM 12.2 °F - 12.2 °F 100% 29.54 in 10.0 mi Calm Calm - N/A   Clear
8:16 AM 12.2 °F 6.1 °F 10.4 °F 92% 29.54 in 10.0 mi SSE 3.5 mph - N/A   Clear
8:36 AM 12.2 °F 6.1 °F 10.4 °F 92% 29.53 in 10.0 mi SE 3.5 mph - N/A   Clear
8:56 AM 12.2 °F 6.1 °F 12.2 °F 100% 29.52 in 10.0 mi SE 3.5 mph - N/A   Clear
9:16 AM 12.2 °F - 12.2 °F 100% 29.51 in 10.0 mi Calm Calm - N/A   Clear
9:36 AM 14.0 °F 8.2 °F 12.2 °F 93% 29.52 in 10.0 mi South 3.5 mph - N/A   Clear
9:56 AM 14.0 °F 8.2 °F 12.2 °F 93% 29.51 in 9.0 mi South 3.5 mph - N/A   Clear
10:16 AM 15.8 °F - 14.0 °F 93% 29.52 in 10.0 mi Calm Calm - N/A   Clear
10:36 AM 15.8 °F 8.6 °F 14.0 °F 93% 29.51 in 10.0 mi South 4.6 mph - N/A   Clear
10:56 AM 17.6 °F - 15.8 °F 93% 29.51 in 10.0 mi Calm Calm - N/A   Clear
11:16 AM 15.8 °F 10.2 °F 15.8 °F 100% 29.50 in 10.0 mi SSE 3.5 mph - N/A   Clear
11:36 AM 15.8 °F 10.2 °F 15.8 °F 100% 29.50 in 10.0 mi SSE 3.5 mph - N/A   Clear
11:56 AM 15.8 °F - 14.0 °F 93% 29.50 in 10.0 mi Calm Calm - N/A   Clear
12:16 PM 15.8 °F - 14.0 °F 93% 29.49 in 10.0 mi Calm Calm - N/A   Clear
12:36 PM 15.8 °F - 15.8 °F 100% 29.49 in 10.0 mi Calm Calm - N/A   Clear
12:56 PM 17.6 °F - 15.8 °F 93% 29.47 in 10.0 mi Calm Calm - N/A   Clear
1:16 PM 17.6 °F - 15.8 °F 93% 29.47 in 10.0 mi Calm Calm - N/A   Clear
1:36 PM 19.4 °F 14.3 °F 17.6 °F 93% 29.47 in 10.0 mi South 3.5 mph - N/A   Clear
1:56 PM 19.4 °F 14.3 °F 19.4 °F 100% 29.46 in 10.0 mi South 3.5 mph - N/A   Clear
2:16 PM 19.4 °F 14.3 °F 17.6 °F 93% 29.46 in 10.0 mi South 3.5 mph - N/A   Clear
2:36 PM 21.2 °F 14.9 °F 19.4 °F 93% 29.46 in 10.0 mi SSW 4.6 mph - N/A   Clear
2:56 PM 21.2 °F 16.4 °F 19.4 °F 93% 29.46 in 10.0 mi South 3.5 mph - N/A   Clear
3:16 PM 21.2 °F - 21.2 °F 100% 29.45 in 10.0 mi Calm Calm - N/A   Clear
3:36 PM 21.2 °F - 21.2 °F 100% 29.44 in 10.0 mi Calm Calm - N/A   Clear
3:56 PM 21.2 °F 16.4 °F 19.4 °F 93% 29.44 in 10.0 mi South 3.5 mph - N/A   Clear
4:16 PM 21.2 °F 16.4 °F 21.2 °F 100% 29.43 in 10.0 mi South 3.5 mph - N/A   Clear
4:36 PM 21.2 °F - 21.2 °F 100% 29.42 in 10.0 mi Calm Calm - N/A   Scattered Clouds
4:56 PM 21.2 °F 16.4 °F 21.2 °F 100% 29.42 in 10.0 mi SSE 3.5 mph - N/A   Scattered Clouds
5:16 PM 21.2 °F 16.4 °F 21.2 °F 100% 29.41 in 10.0 mi South 3.5 mph - N/A   Mostly Cloudy
5:36 PM 21.2 °F 13.6 °F 21.2 °F 100% 29.41 in 10.0 mi South 5.8 mph - N/A   Mostly Cloudy
5:56 PM 21.2 °F 14.9 °F 19.4 °F 93% 29.40 in 10.0 mi South 4.6 mph - N/A   Mostly Cloudy
6:16 PM 23.0 °F 15.8 °F 21.2 °F 93% 29.40 in 10.0 mi South 5.8 mph - N/A   Overcast
6:36 PM 23.0 °F 17.0 °F 21.2 °F 93% 29.40 in 10.0 mi South 4.6 mph - N/A   Overcast
6:56 PM 23.0 °F - 23.0 °F 100% 29.40 in 10.0 mi Calm Calm - N/A   Overcast
7:16 PM 23.0 °F 18.4 °F 21.2 °F 93% 29.39 in 10.0 mi SSW 3.5 mph - N/A   Overcast
7:36 PM 23.0 °F 17.0 °F 21.2 °F 93% 29.39 in 10.0 mi South 4.6 mph - N/A   Overcast
7:56 PM 23.0 °F 17.0 °F 21.2 °F 93% 29.39 in 10.0 mi South 4.6 mph - N/A   Overcast
8:16 PM 24.8 °F 20.5 °F 23.0 °F 93% 29.38 in 10.0 mi SE 3.5 mph - N/A   Overcast
8:36 PM 23.0 °F 17.0 °F 21.2 °F 93% 29.38 in 10.0 mi SSE 4.6 mph - N/A   Mostly Cloudy
8:56 PM 23.0 °F 18.4 °F 21.2 °F 93% 29.38 in 10.0 mi SSE 3.5 mph - N/A   Mostly Cloudy
9:16 PM 23.0 °F - 21.2 °F 93% 29.38 in 10.0 mi Calm Calm - N/A   Mostly Cloudy
9:36 PM 21.2 °F - 21.2 °F 100% 29.38 in 10.0 mi Calm Calm - N/A   Mostly Cloudy
9:56 PM 23.0 °F - 21.2 °F 93% 29.38 in 10.0 mi Calm Calm - N/A   Overcast
10:16 PM 23.0 °F 18.4 °F 21.2 °F 93% 29.38 in 10.0 mi SE 3.5 mph - N/A   Scattered Clouds
10:36 PM 23.0 °F 18.4 °F 21.2 °F 93% 29.37 in 10.0 mi SE 3.5 mph - N/A   Clear
10:56 PM 23.0 °F - 21.2 °F 93% 29.37 in 10.0 mi Calm Calm - N/A   Partly Cloudy
11:16 PM 23.0 °F - 21.2 °F 93% 29.38 in 10.0 mi Calm Calm - N/A   Partly Cloudy
11:36 PM 23.0 °F - 21.2 °F 93% 29.37 in 10.0 mi Calm Calm - N/A   Partly Cloudy
11:56 PM 21.2 °F - 19.4 °F 93% 29.37 in 10.0 mi Calm Calm - N/A   Mostly Cloudy